Погода в Лениногорске

Россия / Республика Татарстан     54°35′56″N   52°26′33″E
В апреле 2022 года жителям России запретили посещать сайт meteo.paraplan.net по решению Генеральной прокуратуры. Аудитория сайта уменьшилась в 10 раз. Владельцы сайта не видят смысла в поддержке погодного сервера в таких условиях. Сайт будет закрыт в октябре.
темп.,
°C
ветер,
м/с
пор.,
м/с
влажн.,
%
обл.,
%
осадки,
мм/ч
давл.,
гПа
погр.,
м
4 октября, вт
вт400:00+10ююв5154099 0.0 1025431
03:00+9ююв6153799 0.0 1026354
06:00+9ююв61536100 0.0 1026350
09:00+12ююв71430100 0.0 1027574
12:00+13ю71227100 0.0 1028733
15:00+13ююв6112893 0.0 1028699
18:00+10ююв51432100 0.0 1028428
21:00+10ююв61433100 0.0 1028471
5 октября, ср
ср500:00+10ю51432100 0.0 1028450
03:00+9ююз61137100 0.0 1028624
06:00+8ююв51246100 0.2 1027501
09:00+10ююв81431100 0.2 1026541
12:00+11ю7153387 0.0 1025730
15:00+12ю61335100 0.0 1024662
18:00+11ююв61533100 0.0 1024574
21:00+9ю81468100 0.1 1023641
6 октября, чт
чт600:00+8ююв3119084 4.8 1021339
03:00+8ююв41260100 4.8 1018391
06:00+8юз2664100 0.4 1017279
09:00+9ююз476845 1.9 1016407
12:00+13юз8106384 0.4 10151372
15:00+10зюз8116962 0.9 10161184
18:00+7зюз597522 0.1 1018948
21:00+6зюз587796 0.1 1018624
7 октября, пт
пт700:00+5зюз5886100 0.0 1019746
03:00+6зюз598980 0.1 1019486
06:00+4зюз499344 0.0 1019360
09:00+7зюз57745 0.0 1019591
12:00+9зюз786858 0.1 10191117
15:00+10зюз6861100 0.2 10181354
18:00+8юз61168100 0.1 1018711
21:00+8зюз61389100 1.1 1017799
8 октября, сб
сб800:00+8з5129480 0.1 1019546
03:00+7з51294100 0.1 1020346
06:00+6зсз6129489 0.0 1022516
09:00+9зсз7107448 0.0 1024753
12:00+12зсз68620 0.0 1024853
15:00+12з68635 0.0 1024884
18:00+8зюз37804 0.0 1026136
21:00+7зюз38845 0.0 1026139